Location: NJAA Observatory
(40.6819°N, 74.8979°W)
Time: 09:52:47
(UTC-04:00)

Courier 1B - All Passes

Search period start: 28 April 2017 00:00
Search period end: 08 May 2017 00:00
Orbit: 963 x 1209 km, 28.3° (Epoch: 26 April)

Date Brightness Start Highest point End Pass type
(mag) Time Alt. Az. Time Alt. Az. Time Alt. Az.
28 Apr - 01:22:47 10° SW 01:29:07 30° S 01:35:40 10° ESE visible
28 Apr - 03:16:03 10° WSW 03:22:38 31° S 03:29:19 10° SE visible
28 Apr - 05:10:38 10° WSW 05:16:01 20° SSW 05:21:25 10° SSE visible
28 Apr - 22:39:03 10° S 22:42:20 14° SSE 22:45:42 10° SE night (unlit)
29 Apr - 00:29:27 10° SW 00:35:26 27° SSE 00:41:39 10° ESE night (unlit)
29 Apr - 02:22:20 10° WSW 02:28:53 32° S 02:35:38 10° ESE visible
29 Apr - 04:16:27 10° WSW 04:22:21 24° SSW 04:28:17 10° SSE visible
29 Apr - 23:36:18 10° SSW 23:41:48 24° SSE 23:47:31 10° ESE night (unlit)
30 Apr - 01:28:44 10° WSW 01:35:10 32° S 01:41:50 10° ESE visible
30 Apr - 03:22:29 10° WSW 03:28:38 27° SSW 03:34:56 10° SE visible
30 Apr - 05:18:20 10° SW 05:21:54 14° SSW 05:25:28 10° S visible
30 Apr - 22:43:23 10° SSW 22:48:13 20° SSE 22:53:14 10° ESE visible
01 May - 00:35:15 10° SW 00:41:28 31° S 00:47:57 10° ESE night (unlit)
01 May - 02:28:38 10° WSW 02:34:56 29° S 02:41:25 10° SE visible
01 May - 04:23:35 10° WSW 04:28:15 17° SSW 04:33:00 10° SSE visible
01 May - 21:50:49 10° S 21:54:41 16° SSE 21:58:40 10° ESE visible
01 May - 23:41:54 10° SW 23:47:48 28° S 23:53:59 10° ESE night (unlit)
02 May - 01:34:56 10° WSW 01:41:13 31° S 01:47:45 10° SE night (unlit)
02 May - 03:29:16 10° WSW 03:34:37 21° SSW 03:40:03 10° SSE visible
02 May - 20:59:01 10° S 21:01:12 12° SSE 21:03:25 10° SE visible
02 May - 22:48:41 10° SW 22:54:11 25° SSE 22:59:56 10° ESE visible
03 May - 00:41:21 10° WSW 00:47:32 31° S 00:54:00 10° ESE night (unlit)
03 May - 02:35:14 10° WSW 02:40:56 24° SSW 02:46:49 10° SE visible
03 May - 04:32:42 10° SW 04:34:08 11° SSW 04:35:35 10° SSW visible
03 May - 21:55:40 10° SSW 22:00:38 21° SSE 22:05:48 10° ESE visible
03 May - 23:47:52 10° SW 23:53:52 30° S 00:00:11 10° ESE visible
04 May - 01:41:23 10° WSW 01:47:15 26° SSW 01:53:23 10° SE night (unlit)
04 May - 03:36:55 10° SW 03:40:31 14° SSW 03:44:11 10° S visible
04 May - 21:02:53 10° SSW 21:07:07 18° SSE 21:11:29 10° ESE visible
04 May - 22:54:28 10° SW 23:00:14 29° S 23:06:17 10° ESE visible
05 May - 00:47:41 10° WSW 00:53:36 28° S 00:59:49 10° SE night (unlit)
05 May - 02:42:22 10° WSW 02:46:53 17° SSW 02:51:33 10° SSE night (unlit)
05 May - 20:10:31 10° S 20:13:38 14° SSE 20:16:50 10° SE daylight
05 May - 22:01:12 10° SW 22:06:39 26° S 22:12:21 10° ESE visible
05 May - 23:54:04 10° WSW 23:59:57 29° S 00:06:08 10° SE visible
06 May - 01:48:13 10° WSW 01:53:17 20° SSW 01:58:31 10° SSE night (unlit)
06 May - 21:08:04 10° SW 21:13:06 23° SSE 21:18:20 10° ESE visible
06 May - 23:00:34 10° WSW 23:06:20 29° S 23:12:23 10° ESE visible
07 May - 00:54:18 10° WSW 00:59:39 23° SSW 01:05:14 10° SE night (unlit)
07 May - 02:51:28 10° SW 02:52:49 11° SSW 02:54:10 10° SSW night (unlit)
07 May - 20:15:06 10° SSW 20:19:36 20° SSE 20:24:14 10° ESE daylight
07 May - 22:07:09 10° SW 22:12:45 29° S 22:18:36 10° ESE visible
